Location: Absher
(46.5583°N, 107.9840°W)
Time: 08:56:17
(UTC+00:00)

TIGRISAT - Pass Details

Date: 01 April 2023
Orbit: 599 x 682 km, 97.7° (Epoch: 28 May)

Event Time Altitude Azimuth Distance (km) Brightness Sun altitude
Rises 11:13:06 0° 141° (SE) 2,926 ? -17.0°
Reaches altitude 10° 11:15:24 10° 132° (SE) 2,036 ? -16.7°
Maximum altitude 11:19:25 34° 68° (ENE) 1,072 ? -16.0°
Drops below altitude 10° 11:23:33 10° 4° (N) 2,096 ? -15.4°
Sets 11:25:57 0° 355° (N) 3,026 ? -15.0°
